Погода в Сакаке

Саудовская Аравия     29°55′47″N   40°11′38″E
темп.,
°C
ветер,
м/с
пор.,
м/с
влажн.,
%
обл.,
%
осадки,
мм/ч
давл.,
гПа
погр.,
м
12 августа, пт
пт1200:00+34с46250 0.0 1004168
03:00+32ссз47270 0.0 1004149
06:00+31ссз35290 0.0 1006111
09:00+34сз44240 0.0 1006607
12:00+39сз34180 0.0 10041313
15:00+42сз45130 0.0 10012233
18:00+41сз55130 0.0 10012489
21:00+37ссз36160 0.0 1003109
13 августа, сб
сб1300:00+34ссз35170 0.0 100385
03:00+32ссз46180 0.0 1003102
06:00+30сз35230 0.0 100382
09:00+33сз55190 0.0 1004649
12:00+38сз55140 0.0 10021453
15:00+41сз56120 0.0 10001894
18:00+40зсз66130 0.0 9992019
21:00+35зсз69160 0.0 1002238
14 августа, вс
вс1400:00+33сз46180 0.0 1002107
03:00+30ссз46220 0.0 1002116
06:00+28сз34290 0.0 100492
09:00+31сз44230 0.0 1005661
12:00+36ссз33150 0.0 10041212
15:00+39сз23120 0.0 10021867
18:00+40сз22130 0.0 10012231
21:00+36сз47180 0.0 1003148
15 августа, пн
пн1500:00+33ссз46210 0.0 100397
03:00+31ссв46220 0.0 100386
06:00+29с22250 0.0 100520
09:00+34с44210 0.0 1005511
12:00+39св22140 0.0 10041468
15:00+41ссв22120 0.0 10022202
18:00+41св43110 0.0 10022577
21:00+37в58140 0.0 1004119
16 августа, вт
вт1600:00+35в34160 0.0 100446
03:00+32св12200 0.0 100416
06:00+31всв22230 0.0 100611
09:00+35в56180 0.0 1006630
12:00+39в33140 0.0 10051371
15:00+41св12120 0.0 10032041
18:00+42ссв23120 0.0 10033224
21:00+38в45150 0.0 100457